Keahole Point, HI

7:46 PM HST on June 18, 2018 (GMT -1000)
Kona International At Keahole

Weather History for PHKO - November, 2017

Change the Weather History Date:

Tuesday, November 14, 2017

  Actual Average Record
Temperature  
Mean Temperature 76 °F -  
Max Temperature 82 °F 82 °F 90 °F (1983)
Min Temperature 71 °F 70 °F 68 °F (1993)
Cooling Degree Days 12    
Growing Degree Days 26 (Base 50)    
Moisture  
Dew Point 61 °F    
Average Humidity 57    
Maximum Humidity 66    
Minimum Humidity 46    
Precipitation  
Precipitation 0.00 in - - ()
Sea Level Pressure  
Sea Level Pressure 29.95 in    
Wind  
Wind Speed 7 mph (East)    
Max Wind Speed 14 mph    
Max Gust Speed -    
Visibility 10 miles    
Events      
Averages and records for this station are not official NWS values.
T = Trace of Precipitation, MM = Missing Value Source: NWS Daily Summary

Daily Weather History Graph

Daily Weather History Graph

Search for Another Location

Airport or City:

Astronomy

Nov. 14, 2017 Rise Set
Actual Time 6:32 AM HST 5:44 PM HST
Civil Twilight 6:09 AM HST 6:08 PM HST
Nautical Twilight 5:42 AM HST 6:34 PM HST
Astronomical Twilight 5:16 AM HST 7:01 PM HST
Moon 3:21 AM HST (11/14) 3:41 PM HST (11/14)
Length of Visible Light 11h 58m
Length of Day
11h 12m
Waning Crescent, 12% of the Moon is Illuminated
Nov 14
Waning Crescent
Nov 18
New
Nov 26
First Quarter
Dec 3
Full
Dec 9
Last Quarter

Hourly Weather History & Observations

Time (HST) Temp. Heat Index Dew Point Humidity Pressure Visibility Wind Dir Wind Speed Gust Speed Precip Events Conditions
12:53 AM 75.0 °F - 59.0 °F 57% 29.96 in 10.0 mi NNE 6.9 mph - N/A   Clear
1:53 AM 73.0 °F - 59.0 °F 61% 29.95 in 10.0 mi ENE 4.6 mph - N/A   Clear
2:53 AM 71.1 °F - 59.0 °F 66% 29.94 in 10.0 mi NNE 3.5 mph - N/A   Clear
3:53 AM 73.9 °F - 57.0 °F 55% 29.93 in 10.0 mi NE 3.5 mph - N/A   Clear
4:53 AM 71.1 °F - 57.0 °F 61% 29.93 in 10.0 mi North 9.2 mph - N/A   Clear
5:53 AM 72.0 °F - 55.9 °F 57% 29.93 in 10.0 mi NNE 5.8 mph - N/A   Clear
6:53 AM 71.1 °F - 57.9 °F 63% 29.96 in 10.0 mi NE 6.9 mph - N/A   Clear
7:53 AM 78.1 °F - 55.9 °F 46% 29.96 in 10.0 mi NE 3.5 mph - N/A   Clear
8:53 AM 80.1 °F 81.1 °F 61.0 °F 52% 29.97 in 10.0 mi SW 5.8 mph - N/A   Clear
9:53 AM 82.0 °F 83.1 °F 63.0 °F 52% 29.97 in 10.0 mi South 8.1 mph - N/A   Partly Cloudy
10:53 AM 82.9 °F 84.4 °F 64.0 °F 53% 29.96 in 10.0 mi SW 8.1 mph - N/A   Scattered Clouds
11:53 AM 82.9 °F 84.4 °F 64.0 °F 53% 29.94 in 10.0 mi SSW 11.5 mph - N/A   Partly Cloudy
12:53 PM 82.9 °F 84.4 °F 64.0 °F 53% 29.92 in 10.0 mi SW 9.2 mph - N/A   Partly Cloudy
1:53 PM 82.9 °F 84.0 °F 63.0 °F 51% 29.90 in 10.0 mi SSW 8.1 mph - N/A   Scattered Clouds
2:53 PM 82.9 °F 84.4 °F 64.0 °F 53% 29.89 in 10.0 mi South 11.5 mph - N/A   Scattered Clouds
3:53 PM 82.9 °F 84.4 °F 64.0 °F 53% 29.89 in 10.0 mi South 13.8 mph - N/A   Scattered Clouds
4:53 PM 81.0 °F 82.7 °F 64.9 °F 58% 29.91 in 10.0 mi South 12.7 mph - N/A   Scattered Clouds
5:53 PM 80.1 °F 82.1 °F 66.0 °F 62% 29.93 in 10.0 mi SSE 9.2 mph - N/A   Partly Cloudy
6:53 PM 79.0 °F - 66.9 °F 66% 29.96 in 10.0 mi ESE 6.9 mph - N/A   Partly Cloudy
7:53 PM 77.0 °F - 64.9 °F 66% 29.97 in 10.0 mi East 3.5 mph - N/A   Clear
8:53 PM 77.0 °F - 64.0 °F 64% 29.99 in 10.0 mi Calm Calm - N/A   Partly Cloudy
9:53 PM 78.1 °F - 61.0 °F 56% 29.99 in 10.0 mi NW 3.5 mph - N/A   Scattered Clouds
10:53 PM 77.0 °F - 59.0 °F 54% 29.99 in 10.0 mi North 9.2 mph - N/A   Clear
11:53 PM 75.9 °F - 57.0 °F 52% 29.99 in 10.0 mi NNE 8.1 mph - N/A   Partly Cloudy